Overview Statistics Trail Chart Weather Telemetry Raw packets
 

This is the latest recevied weather packets stored in our database for station/object S51UL-6. If no packets are shown the sender has not sent any weather packets the latest 10 day(s).

<< 38 39 40 41 42 43 44 >>
Time Temp. Humidity Pressure Rain* Wind** Luminosity Snow
1788363678 26.67° C 54% 1019.1 hPa 8.89 mm - - -
1788363379 26.67° C 54% 1019.3 hPa 7.62 mm - - -
1788363078 26.67° C 53% 1019.3 hPa 7.62 mm - - -
1788362778 26.67° C 52% 1019.3 hPa 6.1 mm - - -
1788362178 27.22° C 51% 1019.2 hPa 6.1 mm - - -
1788361878 27.22° C 51% 1019.3 hPa 3.56 mm - - -
1788361278 27.78° C 50% 1019.5 hPa 1.02 mm - - -
1788360979 27.78° C 48% 1019.7 hPa 1.02 mm - - -
1788360678 28.33° C 48% 1019.6 hPa 1.02 mm - - -
1788360378 28.33° C 49% 1019.4 hPa 1.02 mm - - -
1788360078 28.89° C 49% 1019.5 hPa 1.02 mm - - -
1788359778 28.89° C 49% 1019.6 hPa 1.52 mm - - -
1788359478 28.89° C 48% 1019.4 hPa 1.52 mm - - -
1788358878 28.89° C 49% 1019.6 hPa 5.08 mm - - -
1788358580 28.89° C 48% 1019.7 hPa 5.08 mm - - -
1788358278 29.44° C 47% 1019.7 hPa 5.08 mm - - -
1788357379 30° C 46% 1019.7 hPa 6.1 mm - - -
1788357079 30° C 46% 1020 hPa 6.6 mm - - -
1788356779 30° C 47% 1019.9 hPa 7.62 mm - - -
1788356479 29.44° C 46% 1019.9 hPa 7.62 mm - - -
1788355879 30° C 45% 1019.9 hPa 8.13 mm - - -
1788355579 30° C 45% 1020 hPa 7.11 mm - - -
1788355279 30° C 44% 1019.9 hPa 6.1 mm - - -
1788354679 30.56° C 43% 1020 hPa 5.59 mm - - -
1788354379 31.11° C 44% 1020 hPa 7.62 mm - - -

* Rain latest hour (hover to see other rain measurements)
** Current wind speed in m/s (hover to see current wind gust speed)